Tracking 22994 objects as of 8-May-2021
HD Live streaming from Space Station
objects crossing your sky now

THORAD AGENA D DEB

Track THORAD AGENA D DEB now!
10-day predictions


NORAD ID: 10136
Int'l Code: 1970-025NQ
Perigee: 1,072.9 km
Apogee: 1,073.5 km
Inclination: 99.9 °
Period: 106.5 minutes
Semi major axis: 7444 km
RCS: 0.0546 m2 (small)
Launch date: April 8, 1970
Source: United States (US)
Launch site: AIR FORCE WESTERN TEST RANGE (AFWTR)

Note: This is SATELLITE DEBRIS
aabbcc
Your satellite tracking list
Your tracking list is empty




NASA's NSSDC Master Catalog

Two Line Element Set (TLE):
1 10136U 70025NQ  21127.82481400 -.00000036  00000-0  13884-4 0  9993
2 10136  99.9485  57.8912 0000377 291.5960 138.7808 13.51679172518324
Source of the keplerian elements: AFSPC